Weather History for Princeton, MN

Change the Weather History Date:

Sunday, October 20, 2013

  Actual Average Record
Temperature  
Mean Temperature 32 °F -  
Max Temperature 37 °F 52 °F 78 °F (2003)
Min Temperature 28 °F 33 °F 17 °F (1999)
Degree Days  
Heating Degree Days 32    
Moisture  
Dew Point 32 °F    
Average Humidity 93    
Maximum Humidity 100    
Minimum Humidity 81    
Precipitation  
Precipitation 0.24 in - - ()
Sea Level Pressure  
Sea Level Pressure 29.74 in    
Wind  
Wind Speed 2 mph (NNW)    
Max Wind Speed 13 mph    
Max Gust Speed 22 mph    
Visibility 7 miles    
Events Rain , Snow    
Averages and records for this station are not official NWS values.
T = Trace of Precipitation, MM = Missing Value Source: NWS Daily Summary

Daily Weather History Graph

Daily Weather History Graph

Search for Another Location

Airport:

Trip Planner

Search our weather history database for the weather conditions in past years. The results will help you decide how hot, cold, wet, or windy it might be!

Date:

Astronomy

Oct. 20, 2013 Rise Set
Actual Time 7:37 AM CDT 6:19 PM CDT
Civil Twilight 7:07 AM CDT 6:49 PM CDT
Nautical Twilight 6:33 AM CDT 7:24 PM CDT
Astronomical Twilight 5:58 AM CDT 7:58 PM CDT
Moon 7:22 PM CDT (10/20) 9:21 AM CDT (10/20)
Length of Visible Light 11h 42m
Length of Day
10h 41m
Full, 97% of the Moon is Illuminated
Oct 20
Full
Oct 26
Last Quarter
Nov 3
New
Nov 9
First Quarter
Nov 17
Full

Hourly Weather History & Observations

Time (CDT) Temp. Windchill Dew Point Humidity Pressure Visibility Wind Dir Wind Speed Gust Speed Precip Events Conditions
12:13 AM 30.2 °F - 28.4 °F 93% 29.78 in 10.0 mi Calm Calm - N/A   Clear
12:33 AM 28.4 °F - 26.6 °F 93% 29.78 in 10.0 mi Calm Calm - N/A   Clear
12:53 AM 28.4 °F - 28.4 °F 100% 29.78 in 10.0 mi Calm Calm - N/A   Clear
1:13 AM 30.2 °F - 28.4 °F 93% 29.77 in 10.0 mi Calm Calm - N/A   Clear
1:33 AM 30.2 °F - 28.4 °F 93% 29.76 in 10.0 mi Calm Calm - N/A   Clear
1:53 AM 30.2 °F - 28.4 °F 93% 29.76 in 10.0 mi Calm Calm - N/A   Clear
2:13 AM 30.2 °F - 28.4 °F 93% 29.76 in 10.0 mi Calm Calm - N/A   Clear
2:33 AM 30.2 °F - 28.4 °F 93% 29.76 in 7.0 mi Calm Calm - N/A   Clear
2:54 AM 30.2 °F - 28.4 °F 93% 29.76 in 3.0 mi Calm Calm - N/A   Clear
3:13 AM 28.4 °F - 28.4 °F 100% 29.75 in 10.0 mi Calm Calm - N/A   Clear
3:33 AM 30.2 °F - 28.4 °F 93% 29.74 in 7.0 mi Calm Calm - N/A   Scattered Clouds
3:54 AM 30.2 °F - 28.4 °F 93% 29.74 in 10.0 mi Calm Calm - N/A   Scattered Clouds
4:13 AM 28.4 °F - 26.6 °F 93% 29.75 in 10.0 mi Calm Calm - N/A   Scattered Clouds
4:33 AM 28.4 °F - 26.6 °F 93% 29.74 in 7.0 mi Calm Calm - N/A   Mostly Cloudy
4:53 AM 30.2 °F - 28.4 °F 93% 29.74 in 10.0 mi Calm Calm - N/A   Overcast
5:13 AM 30.2 °F - 30.2 °F 100% 29.74 in 10.0 mi Calm Calm - N/A   Overcast
5:33 AM 32.0 °F - 30.2 °F 93% 29.73 in 7.0 mi Calm Calm - N/A   Mostly Cloudy
5:53 AM 30.2 °F - 30.2 °F 100% 29.72 in 10.0 mi Calm Calm - N/A   Mostly Cloudy
6:13 AM 30.2 °F - 30.2 °F 100% 29.72 in 7.0 mi Calm Calm - N/A   Mostly Cloudy
6:33 AM 32.0 °F - 30.2 °F 93% 29.71 in 7.0 mi Calm Calm - N/A   Mostly Cloudy
6:53 AM 33.8 °F 30.8 °F 32.0 °F 93% 29.71 in 10.0 mi East 3.5 mph - N/A   Overcast
7:13 AM 33.8 °F 30.8 °F 32.0 °F 93% 29.70 in 10.0 mi East 3.5 mph - N/A   Overcast
7:33 AM 33.8 °F 30.8 °F 32.0 °F 93% 29.69 in 10.0 mi East 3.5 mph - N/A   Overcast
7:53 AM 33.8 °F - 32.0 °F 93% 29.70 in 10.0 mi Calm Calm - N/A   Overcast
8:13 AM 33.8 °F - 32.0 °F 93% 29.71 in 3.0 mi Calm Calm - N/A Snow Light Snow
8:33 AM 33.8 °F 30.8 °F 32.0 °F 93% 29.70 in 2.5 mi East 3.5 mph - N/A Snow Light Snow
8:53 AM 33.8 °F 30.8 °F 32.0 °F 93% 29.71 in 2.5 mi ESE 3.5 mph - N/A Snow Light Snow
9:13 AM 33.8 °F - 32.0 °F 93% 29.70 in 1.8 mi Calm Calm - N/A Snow Light Snow
9:33 AM 33.8 °F 29.6 °F 32.0 °F 93% 29.70 in 4.0 mi East 4.6 mph - N/A   Overcast
9:53 AM 33.8 °F 30.8 °F 32.0 °F 93% 29.69 in 2.5 mi East 3.5 mph - N/A Snow Light Snow
10:13 AM 33.8 °F - 32.0 °F 93% 29.69 in 2.5 mi Calm Calm - N/A Snow Light Snow
10:33 AM 33.8 °F - 32.0 °F 93% 29.69 in 2.0 mi Calm Calm - N/A Snow Light Snow
10:53 AM 33.8 °F - 32.0 °F 93% 29.68 in 0.5 mi Calm Calm - N/A Snow Snow
11:13 AM 33.8 °F - 32.0 °F 93% 29.68 in 0.5 mi Calm Calm - N/A Snow Light Snow
11:33 AM 33.8 °F 30.8 °F 32.0 °F 93% 29.67 in 0.5 mi East 3.5 mph - N/A Snow Snow
11:53 AM 33.8 °F 27.7 °F 32.0 °F 93% 29.66 in 0.8 mi ENE 6.9 mph - N/A Snow Light Snow
12:13 PM 33.8 °F 27.7 °F 32.0 °F 93% 29.65 in 1.2 mi East 6.9 mph - N/A Snow Light Snow
12:33 PM 33.8 °F 28.6 °F 33.8 °F 100% 29.65 in 3.0 mi ENE 5.8 mph - N/A Rain Light Rain
12:53 PM 35.6 °F 32.8 °F 33.8 °F 93% 29.65 in 7.0 mi ENE 3.5 mph - 0.02 in   Overcast
1:13 PM 35.6 °F 32.8 °F 33.8 °F 93% 29.65 in 5.0 mi East 3.5 mph - 0.05 in Rain Light Rain
1:33 PM 35.6 °F - 33.8 °F 93% 29.65 in 7.0 mi Calm Calm - 0.09 in Rain Light Rain
1:53 PM 35.6 °F - 33.8 °F 93% 29.65 in 2.0 mi Calm Calm - 0.11 in Rain Light Rain
2:14 PM 35.6 °F 32.8 °F 33.8 °F 93% 29.65 in 2.0 mi NNE 3.5 mph - 0.02 in   Overcast
2:33 PM 33.8 °F 29.6 °F 33.8 °F 100% 29.65 in 2.5 mi North 4.6 mph - 0.04 in Snow Light Snow
2:53 PM 35.6 °F 31.7 °F 33.8 °F 93% 29.66 in 3.0 mi North 4.6 mph - 0.05 in Rain Light Rain
3:14 PM 35.6 °F 29.9 °F 33.8 °F 93% 29.66 in 3.0 mi North 6.9 mph - 0.01 in Rain Light Rain
3:33 PM 35.6 °F 29.9 °F 33.8 °F 93% 29.67 in 4.0 mi North 6.9 mph - 0.02 in Snow Light Snow
3:53 PM 35.6 °F 30.7 °F 33.8 °F 93% 29.68 in 1.8 mi NNW 5.8 mph - 0.04 in Snow Light Snow
4:14 PM 35.6 °F 29.9 °F 33.8 °F 93% 29.69 in 4.0 mi NNW 6.9 mph - 0.01 in   Overcast
4:33 PM 35.6 °F 29.9 °F 33.8 °F 93% 29.70 in 7.0 mi NNW 6.9 mph - 0.02 in Rain Light Rain
4:53 PM 35.6 °F 29.9 °F 33.8 °F 93% 29.71 in 7.0 mi NNW 6.9 mph - 0.02 in Snow Light Snow
5:13 PM 35.6 °F 28.6 °F 33.8 °F 93% 29.71 in 7.0 mi NNW 9.2 mph - N/A Rain Light Rain
5:33 PM 35.6 °F 29.2 °F 33.8 °F 93% 29.72 in 10.0 mi NW 8.1 mph - N/A Rain Light Rain
5:53 PM 35.6 °F 29.9 °F 33.8 °F 93% 29.73 in 10.0 mi NW 6.9 mph - N/A   Light Drizzle
6:14 PM 35.6 °F 30.7 °F 33.8 °F 93% 29.75 in 10.0 mi NW 5.8 mph - N/A   Overcast
6:33 PM 35.6 °F 30.7 °F 33.8 °F 93% 29.76 in 10.0 mi NW 5.8 mph - N/A   Overcast
6:53 PM 35.6 °F 29.2 °F 33.8 °F 93% 29.78 in 10.0 mi WNW 8.1 mph - N/A   Overcast
7:14 PM 35.6 °F 29.9 °F 33.8 °F 93% 29.79 in 10.0 mi WNW 6.9 mph - N/A   Overcast
7:33 PM 35.6 °F 30.7 °F 33.8 °F 93% 29.79 in 10.0 mi WNW 5.8 mph - N/A   Overcast
7:53 PM 35.6 °F 29.2 °F 33.8 °F 93% 29.81 in 10.0 mi West 8.1 mph - N/A   Overcast
8:14 PM 35.6 °F 30.7 °F 33.8 °F 93% 29.81 in 10.0 mi WNW 5.8 mph - N/A   Overcast
8:33 PM 35.6 °F 30.7 °F 33.8 °F 93% 29.82 in 10.0 mi West 5.8 mph - N/A   Overcast
8:53 PM 35.6 °F 31.7 °F 33.8 °F 93% 29.82 in 10.0 mi West 4.6 mph - N/A   Mostly Cloudy
9:13 PM 35.6 °F 30.7 °F 33.8 °F 93% 29.82 in 10.0 mi West 5.8 mph - N/A   Overcast
9:33 PM 37.4 °F 31.4 °F 35.6 °F 93% 29.83 in 10.0 mi West 8.1 mph - N/A   Overcast
9:53 PM 37.4 °F 29.8 °F 35.6 °F 93% 29.84 in 10.0 mi WNW 11.5 mph 17.3 mph N/A   Overcast
10:13 PM 37.4 °F 30.8 °F 33.8 °F 87% 29.84 in 10.0 mi WNW 9.2 mph - N/A   Overcast
10:33 PM 37.4 °F 29.8 °F 33.8 °F 87% 29.85 in 10.0 mi West 11.5 mph 17.3 mph N/A   Overcast
10:53 PM 37.4 °F 30.3 °F 33.8 °F 87% 29.85 in 10.0 mi WNW 10.4 mph 19.6 mph N/A   Overcast
11:13 PM 37.4 °F 30.8 °F 32.0 °F 81% 29.86 in 10.0 mi WNW 9.2 mph 18.4 mph N/A   Overcast
11:33 PM 35.6 °F 27.1 °F 30.2 °F 81% 29.86 in 10.0 mi WNW 12.7 mph 21.9 mph N/A   Overcast
11:53 PM 35.6 °F 27.5 °F 30.2 °F 81% 29.87 in 10.0 mi WNW 11.5 mph 19.6 mph N/A   Overcast